Weather History for KLRU - June, 2013

Change the Weather History Date:

Friday, June 21, 2013

  Actual Average Record
Temperature  
Mean Temperature 84 °F -  
Max Temperature 100 °F 92 °F 100 °F (2006)
Min Temperature 68 °F 65 °F 60 °F (2007)
Cooling Degree Days 19    
Growing Degree Days 34 (Base 50)    
Moisture  
Dew Point 39 °F    
Average Humidity 25    
Maximum Humidity 56    
Minimum Humidity 7    
Precipitation  
Precipitation 0.00 in - - ()
Sea Level Pressure  
Sea Level Pressure 30.02 in    
Wind  
Wind Speed 9 mph (SSW)    
Max Wind Speed 23 mph    
Max Gust Speed 28 mph    
Visibility 10 miles    
Events      
Averages and records for this station are not official NWS values.
T = Trace of Precipitation, MM = Missing Value Source: NWS Daily Summary

Daily Weather History Graph

Daily Weather History Graph

Search for Another Location

Airport or City:

Trip Planner

Search our weather history database for the weather conditions in past years. The results will help you decide how hot, cold, wet, or windy it might be!

Date:

Astronomy

Jun. 21, 2013 Rise Set
Actual Time 6:01 AM MDT 8:17 PM MDT
Civil Twilight 5:32 AM MDT 8:46 PM MDT
Nautical Twilight 4:58 AM MDT 9:20 PM MDT
Astronomical Twilight 4:20 AM MDT 9:58 PM MDT
Moon 6:35 PM MDT (6/21) 4:14 AM MDT (6/21)
Length of Visible Light 15h 13m
Length of Day
14h 16m
Waxing Gibbous, 95% of the Moon is Illuminated
Jun 21
Waxing Gibbous
Jun 23
Full
Jun 29
Last Quarter
Jul 8
New
Jul 15
First Quarter

Hourly Weather History & Observations

Time (MDT) Temp. Dew Point Humidity Pressure Visibility Wind Dir Wind Speed Gust Speed Precip Events Conditions
12:15 AM 79.9 °F 45.9 °F 30% 30.06 in 7.0 mi ESE 6.9 mph - N/A   Clear
12:35 AM 77.7 °F 45.9 °F 32% 30.07 in 10.0 mi SE 8.1 mph - N/A   Clear
12:55 AM 77.2 °F 45.7 °F 33% 30.07 in 10.0 mi SE 8.1 mph - N/A   Clear
1:15 AM 76.1 °F 46.4 °F 35% 30.07 in 10.0 mi SE 8.1 mph - N/A   Clear
1:35 AM 75.9 °F 48.0 °F 37% 30.07 in 10.0 mi SE 11.5 mph - N/A   Clear
1:55 AM 75.6 °F 48.9 °F 39% 30.07 in 10.0 mi SE 9.2 mph - N/A   Clear
2:15 AM 74.5 °F 49.1 °F 41% 30.07 in 10.0 mi SE 8.1 mph - N/A   Clear
2:35 AM 72.9 °F 49.1 °F 43% 30.06 in 10.0 mi SE 6.9 mph - N/A   Clear
2:55 AM 72.5 °F 49.1 °F 44% 30.06 in 10.0 mi SSE 8.1 mph - N/A   Clear
3:15 AM 72.5 °F 49.8 °F 45% 30.06 in 10.0 mi SSE 8.1 mph - N/A   Clear
3:35 AM 72.3 °F 50.2 °F 46% 30.06 in 10.0 mi SE 6.9 mph - N/A   Clear
3:55 AM 70.0 °F 50.0 °F 49% 30.05 in 10.0 mi SE 5.8 mph - N/A   Clear
4:15 AM 70.9 °F 50.7 °F 49% 30.05 in 10.0 mi SSE 6.9 mph - N/A   Clear
4:35 AM 70.7 °F 51.1 °F 50% 30.05 in 10.0 mi SSE 8.1 mph - N/A   Clear
4:55 AM 69.8 °F 51.3 °F 52% 30.05 in 10.0 mi SSE 6.9 mph - N/A   Clear
5:15 AM 69.1 °F 51.8 °F 54% 30.06 in 10.0 mi South 5.8 mph - N/A   Clear
5:35 AM 69.8 °F 52.0 °F 53% 30.05 in 10.0 mi SSE 8.1 mph - N/A   Clear
5:55 AM 68.9 °F 52.0 °F 55% 30.06 in 10.0 mi SSE 5.8 mph - N/A   Clear
6:15 AM 68.5 °F 52.2 °F 56% 30.07 in 10.0 mi SSE 4.6 mph - N/A   Clear
6:35 AM 68.5 °F 52.0 °F 55% 30.06 in 10.0 mi East 5.8 mph - N/A   Clear
6:55 AM 70.7 °F 52.0 °F 51% 30.07 in 10.0 mi SE 4.6 mph - N/A   Clear
7:15 AM 72.3 °F 51.6 °F 48% 30.08 in 10.0 mi SE 3.5 mph - N/A   Clear
7:35 AM 72.7 °F 51.8 °F 48% 30.08 in 10.0 mi SE 3.5 mph - N/A   Clear
7:55 AM 75.7 °F 51.6 °F 43% 30.09 in 10.0 mi SSE 5.8 mph - N/A   Clear
8:15 AM 75.6 °F 51.3 °F 42% 30.09 in 10.0 mi SSE 5.8 mph - N/A   Clear
8:35 AM 77.5 °F 50.7 °F 39% 30.10 in 10.0 mi SSE 9.2 mph - N/A   Clear
8:55 AM 79.0 °F 50.2 °F 36% 30.10 in 10.0 mi SSE 6.9 mph - N/A   Clear
9:15 AM 80.2 °F 50.0 °F 35% 30.10 in 10.0 mi SE 5.8 mph - N/A   Clear
9:35 AM 81.0 °F 49.8 °F 34% 30.10 in 10.0 mi South 4.6 mph - N/A   Clear
9:55 AM 82.6 °F 48.6 °F 30% 30.10 in 10.0 mi SSE 4.6 mph - N/A   Clear
10:15 AM 84.4 °F 47.5 °F 28% 30.09 in 10.0 mi South 3.5 mph - N/A   Clear
10:35 AM 86.0 °F 45.5 °F 24% 30.09 in 10.0 mi South 5.8 mph - N/A   Clear
10:55 AM 87.3 °F 44.1 °F 22% 30.10 in 10.0 mi SSW 4.6 mph - N/A   Clear
11:15 AM 89.4 °F 40.5 °F 18% 30.09 in 10.0 mi SSE 4.6 mph - N/A   Clear
11:35 AM 89.8 °F 37.8 °F 16% 30.09 in 10.0 mi SW 4.6 mph - N/A   Clear
11:55 AM 90.9 °F 36.7 °F 15% 30.08 in 10.0 mi SW 3.5 mph - N/A   Clear
12:15 PM 92.8 °F 37.0 °F 14% 30.07 in 10.0 mi West 4.6 mph - N/A   Clear
12:35 PM 93.6 °F 37.2 °F 14% 30.06 in 10.0 mi SSW 5.8 mph - N/A   Clear
12:55 PM 94.5 °F 38.8 °F 14% 30.05 in 10.0 mi SSW 15.0 mph 19.6 mph N/A   Clear
1:15 PM 95.5 °F 37.0 °F 13% 30.04 in 10.0 mi WSW 12.7 mph 19.6 mph N/A   Clear
1:35 PM 96.4 °F 35.6 °F 12% 30.03 in 10.0 mi WSW 12.7 mph 23.0 mph N/A   Scattered Clouds
1:55 PM 96.8 °F 34.7 °F 11% 30.02 in 10.0 mi WSW 17.3 mph 27.6 mph N/A   Clear
2:15 PM 97.3 °F 35.2 °F 11% 30.01 in 10.0 mi WSW 9.2 mph 24.2 mph N/A   Clear
2:35 PM 97.3 °F 34.3 °F 11% 30.00 in 10.0 mi SW 10.4 mph 24.2 mph N/A   Clear
2:55 PM 98.6 °F 35.6 °F 11% 30.00 in 10.0 mi SW 15.0 mph 26.5 mph N/A   Clear
3:15 PM 97.9 °F 35.8 °F 11% 29.99 in 10.0 mi West 12.7 mph 24.2 mph N/A   Clear
3:35 PM 97.9 °F 35.4 °F 11% 29.98 in 10.0 mi WSW 15.0 mph 20.7 mph N/A   Clear
3:55 PM 100.2 °F 37.0 °F 11% 29.97 in 10.0 mi SSW 12.7 mph 23.0 mph N/A   Clear
4:15 PM 99.1 °F 35.2 °F 11% 29.96 in 10.0 mi West 15.0 mph 24.2 mph N/A   Clear
4:35 PM 99.3 °F 34.9 °F 11% 29.95 in 10.0 mi SW 13.8 mph 19.6 mph N/A   Clear
4:55 PM 97.5 °F 35.4 °F 11% 29.94 in 10.0 mi South 3.5 mph - N/A   Clear
5:15 PM 98.6 °F 33.3 °F 10% 29.94 in 10.0 mi SSW 15.0 mph 26.5 mph N/A   Clear
5:35 PM 98.1 °F 29.8 °F 9% 29.93 in 10.0 mi WSW 13.8 mph 23.0 mph N/A   Clear
5:55 PM 99.1 °F 29.1 °F 8% 29.93 in 10.0 mi WSW 23.0 mph - N/A   Clear
6:15 PM 97.0 °F 30.9 °F 10% 29.92 in 10.0 mi West 17.3 mph 23.0 mph N/A   Clear
6:35 PM 96.4 °F 31.1 °F 10% 29.93 in 10.0 mi WSW 16.1 mph 27.6 mph N/A   Clear
6:55 PM 96.4 °F 30.2 °F 10% 29.93 in 10.0 mi West 16.1 mph 24.2 mph N/A   Clear
7:15 PM 95.4 °F 28.0 °F 9% 29.93 in 10.0 mi West 18.4 mph 23.0 mph N/A   Clear
7:35 PM 94.6 °F 26.1 °F 9% 29.94 in 10.0 mi West 13.8 mph 25.3 mph N/A   Clear
7:55 PM 93.6 °F 24.8 °F 8% 29.94 in 10.0 mi West 13.8 mph 19.6 mph N/A   Clear
8:15 PM 92.5 °F 25.3 °F 9% 29.94 in 10.0 mi West 12.7 mph - N/A   Clear
8:35 PM 91.4 °F 24.8 °F 9% 29.95 in 10.0 mi West 15.0 mph 20.7 mph N/A   Clear
8:55 PM 90.5 °F 20.8 °F 8% 29.95 in 10.0 mi West 12.7 mph - N/A   Clear
9:15 PM 89.6 °F 19.8 °F 8% 29.95 in 10.0 mi West 15.0 mph - N/A   Clear
9:35 PM 88.2 °F 19.2 °F 8% 29.96 in 10.0 mi West 12.7 mph - N/A   Clear
9:55 PM 88.2 °F 18.0 °F 8% 29.97 in 10.0 mi West 15.0 mph 20.7 mph N/A   Clear
10:15 PM 87.1 °F 16.7 °F 7% 29.97 in 10.0 mi WNW 9.2 mph - N/A   Clear
10:35 PM 85.5 °F 16.5 °F 8% 29.98 in 10.0 mi WNW 8.1 mph - N/A   Clear
10:55 PM 82.6 °F 16.5 °F 9% 29.98 in 10.0 mi WNW 6.9 mph - N/A   Clear
11:15 PM 81.3 °F 16.3 °F 9% 29.98 in 10.0 mi WNW 6.9 mph - N/A   Clear
11:35 PM 80.8 °F 15.6 °F 9% 29.98 in 10.0 mi WNW 6.9 mph - N/A   Clear
11:55 PM 79.7 °F 15.1 °F 9% 29.99 in 10.0 mi WNW 9.2 mph - N/A   Clear